Flag for Botswana Weather past 2 weeks in Molepolole, Botswana

Now
66 °F

Passing clouds.


Feels Like: 66 °F
Forecast: 49 / 73 °F
Wind: 7 mph from Northeast

Location: Seretse Khama International Airport

Current Time: Jul 29, 2015 at 11:55:11 AM

Latest Report: Jul 29, 2015 at 11:00 AM


Visibility: N/A

Pressure: 30.15 "Hg (26.37 "Hg at 1145m altitude)

Humidity: 32%

Dew point: 36 °F

Location of MolepololeLocation

Historic Weather in Molepolole — Graph

°F

Molepolole temperature yesterday

Maximum temperature yesterday: 72 °F (at 4:00 PM)
Minimum temperature yesterday: 39 °F (at 7:00 AM)
Average temperature yesterday: 55 °F

Past Weeks' High & Low Weather Summary

 TemperatureHumidityPressure
High82 °F (Jul 16, 3:00 PM)100% (Jul 25, 10:00 PM)30.36 "Hg (Jul 25, 10:00 PM)
Low30 °F (Jul 18, 7:00 AM)8% (Jul 18, 3:00 PM)29.89 "Hg (Jul 16, 4:00 PM)
Average58 °F39%30.18 "Hg
* Reported Jul 14 11:00 AM — Jul 29 11:00 AM, Molepolole, Weather by CustomWeather, © 2015

Note: Actual official high and low records may vary slightly from our data, if they occured in-between our weather recording intervals... More about our weather records

Advertising

Molepolole weather history for previous 24 hours

 ConditionsComfort  
Time TempWeatherWind HumidityBarometerVisibility
11:00 AM
Wed, Jul 29
66 °FPassing clouds.7 mph32%30.15 "HgN/A
10:00 AM59 °FPassing clouds.7 mph42%30.15 "HgN/A
9:00 AM54 °FSunny.9 mph41%30.15 "Hg10 mi
8:00 AM48 °FSunny.8 mph46%30.15 "Hg10 mi
7:00 AM41 °FSunny.9 mph57%30.15 "Hg10 mi
6:00 AM43 °FPassing clouds.7 mph53%30.12 "HgN/A
5:00 AM45 °FClear.7 mph49%30.12 "Hg10 mi
3:00 AM46 °FClear.6 mph43%30.12 "Hg10 mi
2:00 AM48 °FClear.8 mph43%30.15 "Hg10 mi
1:00 AM46 °FClear.7 mph46%30.15 "Hg10 mi
11:00 PM
Tue, Jul 28
52 °FClear.5 mph32%30.18 "Hg10 mi
10:00 PM54 °FClear.1 mph30%30.18 "Hg10 mi
9:00 PM57 °FPassing clouds.6 mph29%30.18 "HgN/A
8:00 PM59 °FClear.7 mph27%30.18 "Hg10 mi
7:00 PM61 °FClear.8 mph25%30.18 "Hg10 mi
6:00 PM66 °FClear.7 mph21%30.15 "Hg10 mi
5:00 PM70 °FPassing clouds.3 mph17%30.15 "HgN/A
4:00 PM72 °FSunny.2 mph17%30.15 "Hg10 mi
3:00 PM70 °FSunny.5 mph20%30.15 "Hg10 mi
2:00 PM70 °FSunny.5 mph20%30.18 "Hg10 mi
1:00 PM68 °FPassing clouds.6 mph23%30.24 "HgN/A
12:00 PM64 °FPassing clouds.9 mph30%30.27 "HgN/A
11:00 AM63 °FPassing clouds.8 mph37%30.30 "HgN/A
Weather by CustomWeather, © 2015

See weather overviewHow to use our weather pages